This is the latest recevied weather packets stored in our database for station/object KB9PMA-1. If no packets are shown the sender has not sent any weather packets the latest 1 day(s).
| Time | Temp. | Humidity | Pressure | Rain* | Wind** | Luminosity | Snow |
|---|---|---|---|---|---|---|---|
| 1778081874 | 12.78° C | 60% | 1015 hPa | 0 mm | - | - | - |
| 1778081274 | 12.22° C | 61% | 1015.1 hPa | 0 mm | - | - | - |
| 1778080974 | 12.22° C | 61% | 1015.2 hPa | 0 mm | - | - | - |
| 1778080374 | 11.67° C | 57% | 1015.2 hPa | 0 mm | - | - | - |
| 1778080074 | 12.22° C | 58% | 1015.2 hPa | 0 mm | - | - | - |
| 1778079474 | 12.22° C | 61% | 1014.9 hPa | 0 mm | - | - | - |
| 1778079174 | 12.22° C | 59% | 1014.9 hPa | 0 mm | - | - | - |
| 1778078874 | 12.22° C | 60% | 1014.9 hPa | 0 mm | - | - | - |
| 1778078574 | 12.22° C | 57% | 1014.7 hPa | 0 mm | - | - | - |
| 1778077674 | 11.67° C | 60% | 1014.7 hPa | 0 mm | - | - | - |
| 1778076774 | 11.67° C | 64% | 1014.7 hPa | 0 mm | - | - | - |
| 1778075874 | 11.67° C | 72% | 1014.3 hPa | 0 mm | - | - | - |
| 1778075574 | 11.11° C | 69% | 1014.1 hPa | 0 mm | - | - | - |
| 1778074974 | 11.11° C | 64% | 1014.3 hPa | 0 mm | - | - | - |
| 1778074674 | 11.11° C | 67% | 1014.3 hPa | 0 mm | - | - | - |
| 1778073174 | 10° C | 82% | 1014.1 hPa | 0 mm | - | - | - |
| 1778072874 | 9.44° C | 81% | 1013.9 hPa | 0 mm | - | - | - |
| 1778071975 | 8.89° C | 91% | 1014 hPa | 0 mm | - | - | - |
| 1778071374 | 8.33° C | 92% | 1013.9 hPa | 0 mm | - | - | - |
| 1778060575 | 7.22° C | 96% | 1011.2 hPa | 0 mm | - | - | - |
| 1778060275 | 7.22° C | 96% | 1011.1 hPa | 0 mm | - | - | - |
| 1778059675 | 7.22° C | 96% | 1011 hPa | 0 mm | - | - | - |
| 1778059375 | 7.22° C | 96% | 1011 hPa | 0 mm | - | - | - |
| 1778059075 | 7.22° C | 96% | 1011.1 hPa | 0 mm | - | - | - |
| 1778058775 | 7.22° C | 96% | 1011.1 hPa | 0 mm | - | - | - |
* Rain latest hour (hover to see other rain measurements)
** Current wind speed in m/s (hover to see current wind gust speed)